Ketchikan, AK

10:17 PM AKDT on September 20, 2018 (GMT -0800)
Ketchikan International

Weather History for PAKT - March, 2018

Change the Weather History Date:

Monday, March 26, 2018

  Actual Average Record
Temperature  
Mean Temperature 42 °F 39 °F  
Max Temperature 46 °F 45 °F 55 °F (1961)
Min Temperature 37 °F 33 °F 12 °F (1967)
Degree Days  
Heating Degree Days 23 26  
Month to date heating degree days 660 717  
Moisture  
Dew Point 39 °F    
Average Humidity 93    
Maximum Humidity 100    
Minimum Humidity 89    
Precipitation  
Precipitation 0.66 in 0.34 in 1.57 in (1952)
Month to date precipitation 6.17 9.19  
Year to date precipitation 26.60 35.12  
Sea Level Pressure  
Sea Level Pressure 29.61 in    
Wind  
Wind Speed 8 mph (SSE)    
Max Wind Speed 21 mph    
Max Gust Speed 25 mph    
Visibility 6 miles    
Events Rain    
T = Trace of Precipitation, MM = Missing Value Source: NWS Daily Summary

Daily Weather History Graph

Daily Weather History Graph

Search for Another Location

Airport or City:

Astronomy

Mar. 26, 2018 Rise Set
Actual Time 6:33 AM AKDT 7:12 PM AKDT
Civil Twilight 5:56 AM AKDT 7:49 PM AKDT
Nautical Twilight 5:11 AM AKDT 8:34 PM AKDT
Astronomical Twilight 4:24 AM AKDT 9:22 PM AKDT
Moon 1:09 PM AKDT (3/26) 4:38 AM AKDT (3/26)
Length of Visible Light 13h 53m
Length of Day
12h 39m
Waxing Gibbous, 74% of the Moon is Illuminated
Mar 26
Waxing Gibbous
Mar 31
Full
Apr 7
Last Quarter
Apr 15
New
Apr 22
First Quarter

Hourly Weather History & Observations

Time (AKDT) Temp. Windchill Dew Point Humidity Pressure Visibility Wind Dir Wind Speed Gust Speed Precip Events Conditions
12:40 AM 37.0 °F 33.3 °F 35.1 °F 93% 29.63 in 10.0 mi SSW 4.6 mph - 0.04 in Rain Light Rain
12:53 AM 37.0 °F 32.4 °F 35.1 °F 93% 29.63 in 8.0 mi South 5.8 mph - 0.04 in Rain Light Rain
1:23 AM 37.9 °F 30.5 °F 36.0 °F 93% 29.63 in 4.0 mi SE 11.5 mph - 0.01 in Rain Light Rain
1:31 AM 37.9 °F 30.5 °F 36.0 °F 93% 29.63 in 6.0 mi SSE 11.5 mph - 0.02 in Rain Light Rain
1:53 AM 37.9 °F 31.5 °F 35.1 °F 89% 29.63 in 9.0 mi SSE 9.2 mph - 0.02 in Rain Light Rain
2:53 AM 37.0 °F 31.0 °F 35.1 °F 93% 29.62 in 5.0 mi SSE 8.1 mph - 0.02 in Rain Light Rain
3:53 AM 37.9 °F 32.7 °F 36.0 °F 93% 29.62 in 10.0 mi South 6.9 mph - 0.00 in   Overcast
4:53 AM 37.9 °F 30.9 °F 35.1 °F 89% 29.60 in 10.0 mi SSE 10.4 mph - 0.00 in Rain Light Rain
5:53 AM 37.9 °F 33.5 °F 35.1 °F 89% 29.60 in 10.0 mi South 5.8 mph - 0.01 in Rain Light Rain
6:07 AM 37.4 °F 31.4 °F 35.6 °F 93% 29.59 in 10.0 mi SSE 8.1 mph - N/A Rain Light Rain
6:53 AM 37.4 °F 32.1 °F 35.6 °F 93% 29.59 in 10.0 mi South 6.9 mph - N/A Rain Light Rain
7:53 AM 37.4 °F 31.4 °F 35.6 °F 93% 29.60 in 3.0 mi South 8.1 mph - N/A Rain Light Rain
8:53 AM 37.4 °F 32.8 °F 35.6 °F 93% 29.59 in 5.0 mi South 5.8 mph - N/A Rain Light Rain
9:53 AM 37.4 °F 32.8 °F 35.6 °F 93% 29.60 in 5.0 mi South 5.8 mph - N/A Rain Light Rain
10:53 AM 37.4 °F 31.4 °F 35.6 °F 93% 29.61 in 4.0 mi SSW 8.1 mph - N/A Rain Light Rain
11:53 AM 37.4 °F 32.1 °F 35.6 °F 93% 29.60 in 4.0 mi South 6.9 mph - N/A Rain Light Rain
12:53 PM 39.2 °F 34.2 °F 37.4 °F 93% 29.59 in 3.0 mi South 6.9 mph - N/A Rain Light Rain
1:51 PM 39.2 °F 33.6 °F 37.4 °F 93% 29.58 in 3.0 mi South 8.1 mph - 0.09 in Rain Light Rain
1:53 PM 39.2 °F 33.6 °F 39.2 °F 100% 29.58 in 3.0 mi South 8.1 mph - N/A Rain Light Rain
2:53 PM 42.8 °F 36.6 °F 41.0 °F 93% 29.59 in 3.0 mi SSE 11.5 mph 19.6 mph N/A Rain Light Rain
3:53 PM 42.8 °F 35.1 °F 42.8 °F 100% 29.58 in 3.0 mi SE 16.1 mph 21.9 mph N/A Rain Light Rain
4:53 PM 46.4 °F 40.1 °F 44.6 °F 93% 29.57 in 3.0 mi SE 15.0 mph - N/A Rain Light Rain
5:53 PM 46.4 °F 39.5 °F 44.6 °F 93% 29.57 in 3.0 mi SE 17.3 mph - N/A   Overcast
6:51 PM 46.4 °F 41.5 °F 44.6 °F 93% 29.58 in 3.0 mi SE 10.4 mph - N/A   Overcast
6:53 PM 46.4 °F 41.5 °F 44.6 °F 93% 29.58 in 3.0 mi SSE 10.4 mph - N/A   Overcast
7:53 PM 44.6 °F 39.7 °F 44.6 °F 100% 29.59 in 7.0 mi SSE 9.2 mph - N/A   Overcast
8:53 PM 44.6 °F 43.1 °F 42.8 °F 93% 29.62 in 10.0 mi SE 3.5 mph - N/A   Overcast
9:53 PM 45.0 °F 41.2 °F 42.1 °F 90% 29.64 in 10.0 mi SE 6.9 mph - N/A   Overcast
10:53 PM 44.1 °F 40.8 °F 42.1 °F 93% 29.66 in 10.0 mi SE 5.8 mph - 0.00 in   Overcast
11:20 PM 44.1 °F 41.5 °F 42.1 °F 93% 29.67 in 10.0 mi SE 4.6 mph - 0.00 in Rain Light Rain
11:34 PM 44.1 °F 41.5 °F 42.1 °F 93% 29.67 in 10.0 mi SSE 4.6 mph - 0.00 in   Mostly Cloudy
11:53 PM 44.1 °F - 42.1 °F 93% 29.69 in 10.0 mi Calm Calm - 0.00 in   Overcast